Spokane Fairchild, WA
on Tuesday, January 8, 2013

Tuesday
Previous Day Next Day
Daily Summary
 ActualAverage (KGEG)Record (KGEG)
Temperature
Mean Temperature °F / °C 28°F / -2°C  
Max Temperature 40°F / 4°C 33°F / 1°C 50°F / 10°C (1983)
Min Temperature 32°F / 0°C 24°F / -4°C -20°F / -28°C (1888)
Degree Days
Heating Degree Days 30 37  
Month to date heating degree days 298  
Since 1 July heating degree days 3132  
Cooling Degree Days 0 0  
Month to date cooling degree days 0  
Year to date cooling degree days 0  
Moisture
Dew Point 34°F / 1°C   
Average Humidity 100    
Maximum Humidity 100    
Minimum Humidity 100    
Precipitation
Precipitation 0.05 in / 1.27 cm 0.06 in / 1.52 cm 0.65 in / 1.65 cm (1953)
Month to date precipitation 0.51  
Year to date precipitation 0.51  
Snow
Snow 0.00 in / 0.00 cm 0.40 in / 1.02 cm 5.40 in / 13.72 cm (2008)
Month to date snowfall 3.7  
Since 1 July snowfall 25.8  
Snow Depth 10.00 in / 25.40 cm   
Wind
Wind Speed 11 mph / 18 km/h   
Max Wind Speed 24 mph / 39 km/h   
Max Gust Speed 36 mph / 58 km/h   
Visibility 6 miles / 9 kilometers   
Events Fog , Rain , Snow   

Key: T is trace of precipitation, MM is missing value
Source: NWS Daily Summary
Time(PST)TemperatureDew PointHumidity Pressure Visibility Wind DirectionWind SpeedGust SpeedPrecipitationEvents Conditions
12:58 AM 33.8°F / 1.0°C 33.8°F / 1.0°C 100% 30.06 in / 1017.8 hPa 10.0 miles / 16.1 kilometers SW 17.3 mph / 27.8 km/h - 0.00 in / 0.0 cm   Light Drizzle
1:58 AM 34.2°F / 1.2°C 34.2°F / 1.2°C 100% 30.08 in / 1018.5 hPa 10.0 miles / 16.1 kilometers North - - 0.00 in / 0.0 cm   Light Drizzle
2:40 AM 32.0°F / 0.0°C 32.0°F / 0.0°C 100% 30.02 in / 1016.5 hPa 10.0 miles / 16.1 kilometers SW 15.0 mph / 24.1 km/h - N/A   Scattered Clouds
2:58 AM 33.3°F / 0.7°C 33.3°F / 0.7°C 100% 30.09 in / 1018.9 hPa 10.0 miles / 16.1 kilometers SW 13.8 mph / 22.2 km/h - 0.00 in / 0.0 cm   Overcast
3:58 AM 33.3°F / 0.7°C 33.3°F / 0.7°C 100% 30.10 in / 1019.2 hPa 10.0 miles / 16.1 kilometers SW 13.8 mph / 22.2 km/h - N/A   Overcast
4:58 AM 33.1°F / 0.6°C 33.1°F / 0.6°C 100% 30.10 in / 1019.2 hPa 10.0 miles / 16.1 kilometers SW 13.8 mph / 22.2 km/h - N/A   Overcast
5:58 AM 33.1°F / 0.6°C 33.1°F / 0.6°C 100% 30.11 in / 1019.6 hPa 10.0 miles / 16.1 kilometers SW 10.4 mph / 16.7 km/h - N/A   Overcast
6:58 AM 32.9°F / 0.5°C 32.9°F / 0.5°C 100% 30.13 in / 1020.2 hPa 10.0 miles / 16.1 kilometers SSW 10.4 mph / 16.7 km/h - N/A   Overcast
7:58 AM 32.0°F / 0.0°C 32.0°F / 0.0°C 100% 30.15 in / 1020.9 hPa 10.0 miles / 16.1 kilometers SSW 10.4 mph / 16.7 km/h - N/A   Mostly Cloudy
8:01 AM 32.0°F / 0.0°C 32.0°F / 0.0°C 100% 30.09 in / 1018.8 hPa 10.0 miles / 16.1 kilometers SSW 10.4 mph / 16.7 km/h - N/A   Mostly Cloudy
8:12 AM 32.0°F / 0.0°C 32.0°F / 0.0°C 100% 30.09 in / 1018.8 hPa 10.0 miles / 16.1 kilometers SSW 10.4 mph / 16.7 km/h - N/A   Mostly Cloudy
8:20 AM 32.0°F / 0.0°C 32.0°F / 0.0°C 100% 30.09 in / 1018.8 hPa 10.0 miles / 16.1 kilometers SSW 11.5 mph / 18.5 km/h - N/A   Overcast
8:25 AM 32.0°F / 0.0°C 32.0°F / 0.0°C 100% 30.08 in / 1018.5 hPa 10.0 miles / 16.1 kilometers SW 9.2 mph / 14.8 km/h - N/A   Overcast
8:29 AM 32.0°F / 0.0°C 32.0°F / 0.0°C 100% 30.08 in / 1018.5 hPa 10.0 miles / 16.1 kilometers SW 9.2 mph / 14.8 km/h - N/A   Overcast
8:58 AM 33.8°F / 1.0°C 33.8°F / 1.0°C 100% 30.16 in / 1021.1 hPa 10.0 miles / 16.1 kilometers SW 11.5 mph / 18.5 km/h - 0.00 in / 0.0 cm   Light Drizzle
9:01 AM 32.0°F / 0.0°C 32.0°F / 0.0°C 100% 30.09 in / 1018.8 hPa 10.0 miles / 16.1 kilometers SSW 10.4 mph / 16.7 km/h - N/A   Scattered Clouds
9:12 AM 32.0°F / 0.0°C 32.0°F / 0.0°C 100% 30.09 in / 1018.8 hPa 10.0 miles / 16.1 kilometers WSW 9.2 mph / 14.8 km/h - N/A   Light Drizzle
9:27 AM 32.0°F / 0.0°C 32.0°F / 0.0°C 100% 30.09 in / 1018.8 hPa 10.0 miles / 16.1 kilometers SW 13.8 mph / 22.2 km/h - N/A Rain Light Rain
9:42 AM 32.0°F / 0.0°C 32.0°F / 0.0°C 100% 30.09 in / 1018.8 hPa 2.5 miles / 4.0 kilometers SW 10.4 mph / 16.7 km/h - N/A Snow Light Snow
9:58 AM 32.4°F / 0.2°C 32.4°F / 0.2°C 100% 30.15 in / 1020.9 hPa 2.5 miles / 4.0 kilometers SW 6.9 mph / 11.1 km/h - 0.00 in / 0.0 cm Snow Light Snow
10:03 AM 32.0°F / 0.0°C 32.0°F / 0.0°C 100% 30.08 in / 1018.5 hPa 3.0 miles / 4.8 kilometers SW 5.8 mph / 9.3 km/h - N/A Snow Light Snow
10:53 AM 32.0°F / 0.0°C 32.0°F / 0.0°C 100% 30.07 in / 1018.2 hPa 9.0 miles / 14.5 kilometers South 3.5 mph / 5.6 km/h - N/A Snow Light Snow
10:58 AM 32.7°F / 0.4°C 32.7°F / 0.4°C 100% 30.13 in / 1020.2 hPa 7.0 miles / 11.3 kilometers South 3.5 mph / 5.6 km/h - 0.00 in / 0.0 cm Snow Light Snow
11:23 AM 32.0°F / 0.0°C 32.0°F / 0.0°C 100% 30.05 in / 1017.5 hPa 3.0 miles / 4.8 kilometers Calm Calm - N/A Snow Light Snow
11:28 AM 32.0°F / 0.0°C 32.0°F / 0.0°C 100% 30.05 in / 1017.5 hPa 2.5 miles / 4.0 kilometers Calm Calm - N/A Snow Light Snow
11:33 AM 32.0°F / 0.0°C 32.0°F / 0.0°C 100% 30.04 in / 1017.2 hPa 2.5 miles / 4.0 kilometers Calm Calm - N/A Snow Light Snow
11:48 AM 32.0°F / 0.0°C 32.0°F / 0.0°C 100% 30.04 in / 1017.2 hPa 2.5 miles / 4.0 kilometers SE 2.3 mph / 3.7 km/h - N/A Snow Light Snow
11:58 AM 32.7°F / 0.4°C 32.7°F / 0.4°C 100% 30.10 in / 1019.2 hPa 1.8 miles / 2.8 kilometers ESE 3.5 mph / 5.6 km/h - 0.00 in / 0.0 cm Snow Light Snow
12:03 PM 32.0°F / 0.0°C 32.0°F / 0.0°C 100% 30.02 in / 1016.5 hPa 1.5 miles / 2.4 kilometers East 3.5 mph / 5.6 km/h - N/A Snow Light Snow
12:08 PM 32.0°F / 0.0°C 32.0°F / 0.0°C 100% 30.02 in / 1016.5 hPa 1.2 miles / 2.0 kilometers ESE 3.5 mph / 5.6 km/h - N/A Snow Light Snow
12:28 PM 32.0°F / 0.0°C 32.0°F / 0.0°C 100% 30.01 in / 1016.1 hPa 1.8 miles / 2.8 kilometers ESE 5.8 mph / 9.3 km/h - N/A Snow Light Snow
12:33 PM 32.0°F / 0.0°C 32.0°F / 0.0°C 100% 30.01 in / 1016.1 hPa 3.0 miles / 4.8 kilometers ESE 5.8 mph / 9.3 km/h - N/A Snow Light Snow
12:58 PM 32.5°F / 0.3°C 32.5°F / 0.3°C 100% 30.06 in / 1017.8 hPa 3.0 miles / 4.8 kilometers East 4.6 mph / 7.4 km/h - 0.01 in / 0.3 cm Snow Light Snow
1:03 PM 32.0°F / 0.0°C 32.0°F / 0.0°C 100% 29.99 in / 1015.5 hPa 2.5 miles / 4.0 kilometers ESE 5.8 mph / 9.3 km/h - N/A Snow Light Snow
1:38 PM 32.0°F / 0.0°C 32.0°F / 0.0°C 100% 29.99 in / 1015.5 hPa 1.8 miles / 2.8 kilometers SE 4.6 mph / 7.4 km/h - N/A Snow Light Snow
1:43 PM 32.0°F / 0.0°C 32.0°F / 0.0°C 100% 29.99 in / 1015.5 hPa 1.5 miles / 2.4 kilometers SE 4.6 mph / 7.4 km/h - N/A Snow Light Snow
1:53 PM 32.0°F / 0.0°C 32.0°F / 0.0°C 100% 29.98 in / 1015.1 hPa 1.5 miles / 2.4 kilometers SE 5.8 mph / 9.3 km/h - N/A Snow Light Snow
1:58 PM 32.4°F / 0.2°C 32.4°F / 0.2°C 100% 30.05 in / 1017.5 hPa 1.8 miles / 2.8 kilometers SE 5.8 mph / 9.3 km/h - 0.01 in / 0.3 cm Snow Light Snow
2:08 PM 32.0°F / 0.0°C 32.0°F / 0.0°C 100% 29.97 in / 1014.8 hPa 1.5 miles / 2.4 kilometers ESE 5.8 mph / 9.3 km/h - N/A Snow Light Snow
2:23 PM 32.0°F / 0.0°C 32.0°F / 0.0°C 100% 29.97 in / 1014.8 hPa 1.8 miles / 2.8 kilometers SE 5.8 mph / 9.3 km/h - N/A Snow Light Snow
2:27 PM 32.0°F / 0.0°C 32.0°F / 0.0°C 100% 29.97 in / 1014.8 hPa 1.8 miles / 2.8 kilometers SE 6.9 mph / 11.1 km/h - N/A Snow Light Snow
2:52 PM 32.0°F / 0.0°C 32.0°F / 0.0°C 100% 29.96 in / 1014.4 hPa 2.0 miles / 3.2 kilometers SE 6.9 mph / 11.1 km/h - N/A Snow Light Snow
2:58 PM 32.4°F / 0.2°C 32.4°F / 0.2°C 100% 30.04 in / 1017.0 hPa 2.0 miles / 3.2 kilometers SE 6.9 mph / 11.1 km/h - 0.01 in / 0.3 cm Snow Light Snow
3:08 PM 32.0°F / 0.0°C 32.0°F / 0.0°C 100% 29.96 in / 1014.4 hPa 2.5 miles / 4.0 kilometers SE 5.8 mph / 9.3 km/h - N/A Snow Light Snow
3:18 PM 32.0°F / 0.0°C 32.0°F / 0.0°C 100% 29.95 in / 1014.1 hPa 3.0 miles / 4.8 kilometers SE 4.6 mph / 7.4 km/h - N/A Rain Light Rain
3:58 PM 32.9°F / 0.5°C 32.9°F / 0.5°C 100% 30.00 in / 1015.9 hPa 7.0 miles / 11.3 kilometers SE 9.2 mph / 14.8 km/h - 0.01 in / 0.3 cm Rain Light Rain
4:03 PM 32.0°F / 0.0°C 32.0°F / 0.0°C 100% 29.93 in / 1013.4 hPa 7.0 miles / 11.3 kilometers SSE 5.8 mph / 9.3 km/h - N/A   Overcast
4:43 PM 32.0°F / 0.0°C 32.0°F / 0.0°C 100% 29.91 in / 1012.8 hPa 1.5 miles / 2.4 kilometers SSE 6.9 mph / 11.1 km/h - N/A   Overcast
4:48 PM 33.8°F / 1.0°C 33.8°F / 1.0°C 100% 29.91 in / 1012.8 hPa 1.0 miles / 1.6 kilometers South 5.8 mph / 9.3 km/h - N/A   Mist
4:53 PM 33.8°F / 1.0°C 33.8°F / 1.0°C 100% 29.91 in / 1012.8 hPa 0.5 miles / 0.8 kilometers SSE 5.8 mph / 9.3 km/h - N/A Fog Fog
4:58 PM 33.8°F / 1.0°C 33.8°F / 1.0°C 100% 29.98 in / 1015.1 hPa 1.0 miles / 1.6 kilometers SE 8.1 mph / 13.0 km/h - 0.00 in / 0.0 cm   Mist
5:03 PM 33.8°F / 1.0°C 33.8°F / 1.0°C 100% 29.90 in / 1012.4 hPa 1.0 miles / 1.6 kilometers SSE 5.8 mph / 9.3 km/h - N/A   Mist
5:08 PM 33.8°F / 1.0°C 33.8°F / 1.0°C 100% 29.90 in / 1012.4 hPa 0.8 miles / 1.2 kilometers SSE 6.9 mph / 11.1 km/h - N/A   Mist
5:13 PM 33.8°F / 1.0°C 33.8°F / 1.0°C 100% 29.89 in / 1012.1 hPa 0.2 miles / 0.4 kilometers South 8.1 mph / 13.0 km/h - N/A Fog Fog
5:38 PM 35.6°F / 2.0°C 35.6°F / 2.0°C 100% 29.88 in / 1011.7 hPa 0.5 miles / 0.8 kilometers South 9.2 mph / 14.8 km/h - N/A Fog Fog
5:43 PM 35.6°F / 2.0°C 35.6°F / 2.0°C 100% 29.87 in / 1011.4 hPa 0.5 miles / 0.8 kilometers South 10.4 mph / 16.7 km/h - N/A Fog Fog
5:48 PM 35.6°F / 2.0°C 35.6°F / 2.0°C 100% 29.87 in / 1011.4 hPa 0.5 miles / 0.8 kilometers South 11.5 mph / 18.5 km/h - N/A Fog Fog
5:53 PM 35.6°F / 2.0°C 35.6°F / 2.0°C 100% 29.86 in / 1011.1 hPa 0.8 miles / 1.2 kilometers South 11.5 mph / 18.5 km/h - N/A   Mist
5:58 PM 36.0°F / 2.2°C 36.0°F / 2.2°C 100% 29.93 in / 1013.3 hPa 0.8 miles / 1.2 kilometers South 12.7 mph / 20.4 km/h - 0.00 in / 0.0 cm   Mist
6:03 PM 35.6°F / 2.0°C 35.6°F / 2.0°C 100% 29.86 in / 1011.1 hPa 0.8 miles / 1.2 kilometers South 15.0 mph / 24.1 km/h - N/A   Mist
6:08 PM 35.6°F / 2.0°C 35.6°F / 2.0°C 100% 29.85 in / 1010.7 hPa 1.0 miles / 1.6 kilometers South 11.5 mph / 18.5 km/h - N/A   Mist
6:13 PM 35.6°F / 2.0°C 35.6°F / 2.0°C 100% 29.85 in / 1010.7 hPa 1.0 miles / 1.6 kilometers South 12.7 mph / 20.4 km/h - N/A   Mist
6:18 PM 35.6°F / 2.0°C 35.6°F / 2.0°C 100% 29.85 in / 1010.7 hPa 1.5 miles / 2.4 kilometers South 11.5 mph / 18.5 km/h - N/A   Overcast
6:23 PM 37.4°F / 3.0°C 37.4°F / 3.0°C 100% 29.85 in / 1010.7 hPa 3.0 miles / 4.8 kilometers South 12.7 mph / 20.4 km/h - N/A   Overcast
6:28 PM 37.4°F / 3.0°C 37.4°F / 3.0°C 100% 29.84 in / 1010.4 hPa 8.0 miles / 12.9 kilometers South 13.8 mph / 22.2 km/h - N/A   Overcast
6:31 PM 37.4°F / 3.0°C 37.4°F / 3.0°C 100% 29.84 in / 1010.4 hPa 10.0 miles / 16.1 kilometers South 15.0 mph / 24.1 km/h - N/A   Overcast
6:50 PM 37.4°F / 3.0°C 37.4°F / 3.0°C 100% 29.84 in / 1010.4 hPa 10.0 miles / 16.1 kilometers South 13.8 mph / 22.2 km/h - N/A   Overcast
6:58 PM 36.7°F / 2.6°C 36.7°F / 2.6°C 100% 29.90 in / 1012.5 hPa 10.0 miles / 16.1 kilometers South 12.7 mph / 20.4 km/h - 0.00 in / 0.0 cm   Overcast
7:08 PM 37.4°F / 3.0°C 37.4°F / 3.0°C 100% 29.83 in / 1010.0 hPa 10.0 miles / 16.1 kilometers South 13.8 mph / 22.2 km/h - N/A   Overcast
7:20 PM 37.4°F / 3.0°C 37.4°F / 3.0°C 100% 29.83 in / 1010.0 hPa 10.0 miles / 16.1 kilometers South 15.0 mph / 24.1 km/h - N/A   Overcast
7:25 PM 37.4°F / 3.0°C 37.4°F / 3.0°C 100% 29.83 in / 1010.0 hPa 10.0 miles / 16.1 kilometers South 12.7 mph / 20.4 km/h - N/A   Overcast
7:35 PM 37.4°F / 3.0°C 37.4°F / 3.0°C 100% 29.82 in / 1009.7 hPa 10.0 miles / 16.1 kilometers South 17.3 mph / 27.8 km/h - N/A Snow Light Snow
7:45 PM 37.4°F / 3.0°C 37.4°F / 3.0°C 100% 29.82 in / 1009.7 hPa 10.0 miles / 16.1 kilometers South 17.3 mph / 27.8 km/h - N/A Snow Light Snow
7:55 PM 37.4°F / 3.0°C 37.4°F / 3.0°C 100% 29.82 in / 1009.7 hPa 10.0 miles / 16.1 kilometers South 17.3 mph / 27.8 km/h - N/A Snow Light Snow
7:58 PM 37.6°F / 3.1°C 37.6°F / 3.1°C 100% 29.88 in / 1011.8 hPa 10.0 miles / 16.1 kilometers South 18.4 mph / 29.6 km/h - 0.00 in / 0.0 cm Snow Light Snow
8:16 PM 39.2°F / 4.0°C 39.2°F / 4.0°C 100% 29.82 in / 1009.7 hPa 10.0 miles / 16.1 kilometers South 18.4 mph / 29.6 km/h 25.3 mph / 40.7 km/h N/A   Scattered Clouds
8:58 PM 38.3°F / 3.5°C 38.3°F / 3.5°C 100% 29.88 in / 1011.6 hPa 10.0 miles / 16.1 kilometers South 16.1 mph / 25.9 km/h - 0.00 in / 0.0 cm   Clear
9:18 PM 39.2°F / 4.0°C 39.2°F / 4.0°C 100% 29.82 in / 1009.7 hPa 10.0 miles / 16.1 kilometers South 19.6 mph / 31.5 km/h - N/A   Clear
9:30 PM 39.2°F / 4.0°C 39.2°F / 4.0°C 100% 29.81 in / 1009.4 hPa 10.0 miles / 16.1 kilometers SSW 20.7 mph / 33.3 km/h 27.6 mph / 44.4 km/h N/A   Clear
9:58 PM 39.4°F / 4.1°C 39.4°F / 4.1°C 100% 29.86 in / 1011.1 hPa 10.0 miles / 16.1 kilometers South 18.4 mph / 29.6 km/h - 0.00 in / 0.0 cm   Partly Cloudy
10:58 PM 39.9°F / 4.4°C 39.9°F / 4.4°C 100% 29.87 in / 1011.4 hPa 10.0 miles / 16.1 kilometers South 19.6 mph / 31.5 km/h 32.2 mph / 51.9 km/h N/A   Partly Cloudy
11:58 PM 40.1°F / 4.5°C 40.1°F / 4.5°C 100% 29.86 in / 1010.9 hPa 10.0 miles / 16.1 kilometers SSW 24.2 mph / 38.9 km/h 35.7 mph / 57.4 km/h 0.01 in / 0.3 cm   Mostly Cloudy
Moon Phase
Jan. 08 Jan. 11 Jan. 18 Jan. 26 Feb. 03
Sunrise:07:37 AM (PST) Moon Rise:04:14 AM (PST)1/8
Sunset:04:17 PM (PST) Moon Set:01:24 PM (PST)1/8

Copyright © 2014 The Weather Underground, Inc.